Location: Rowland
(34.5359°N, 79.2929°W)
Time: 17:32:47
(UTC+00:00)

A-11 Canister half - Pass Details

Date: 03 October 2022
Orbit: 1515 x 1684 km, 47.2° (Epoch: 06 December)

Event Time Altitude Azimuth Distance (km) Brightness Sun altitude
Rises 03:33:24 0° 270° (W) 4,806 11.9 -52.6°
Reaches altitude 10° 03:36:49 10° 277° (W) 3,797 11.3 -53.0°
Enters shadow 03:40:30 24° 291° (WNW) 2,817 10.5 -53.5°
